Location: Dampvalley
(47.9094°N, 6.1967°E)
Time: 07:23:06
(UTC+00:00)

Cosmos 2322 - Pass Details

Date: 05 March 2021
Orbit: 842 x 853 km, 71.0° (Epoch: 18 April)

Event Time Altitude Azimuth Distance (km) Brightness Sun altitude
Rises 04:21:47 0° 332° (NNW) 3,425 6.7 -18.6°
Reaches altitude 10° 04:24:15 10° 333° (NNW) 2,484 6.0 -18.2°
Maximum altitude 04:29:58 89° 65° (ENE) 854 3.7 -17.2°
Drops below altitude 10° 04:35:38 10° 154° (SSE) 2,460 6.3 -16.3°
Sets 04:38:04 0° 154° (SSE) 3,390 7.1 -15.9°
